owner,sensor,date,latitude,longitude,vertical_datum,wind_speed,wind_to_direction,wind_speed_of_gust,qcFlag 
LUMCON,ioos:station:LUMCON:103:1,2009-01-05T20:00:00Z,30.1889,-90.1683,1.0,3.6,110.0,7.2,'11111222,11111222,11111222' 
LUMCON,ioos:station:LUMCON:103:1,2009-01-05T21:00:00Z,30.1889,-90.1683,1.0,3.6,190.0,6.2,'11111222,11111222,11111222' 
LUMCON,ioos:station:LUMCON:103:1,2009-01-05T22:00:00Z,30.1889,-90.1683,1.0,4.6,180.0,6.2,'11111222,11111222,11111222' 
LUMCON,ioos:station:LUMCON:103:1,2009-01-05T23:00:00Z,30.1889,-90.1683,1.0,4.1,180.0,5.7,'11111222,11111222,11111222' 
LUMCON,ioos:station:LUMCON:103:1,2009-01-06T00:00:00Z,30.1889,-90.1683,1.0,5.1,180.0,7.7,'11111222,11111222,11111222' 
LUMCON,ioos:station:LUMCON:103:1,2009-01-06T01:00:00Z,30.1889,-90.1683,1.0,4.1,170.0,6.2,'11111222,11111222,11111222' 
LUMCON,ioos:station:LUMCON:103:1,2009-01-06T02:00:00Z,30.1889,-90.1683,1.0,4.6,170.0,5.7,'11111222,11111222,11111222' 
LUMCON,ioos:station:LUMCON:103:1,2009-01-06T03:00:00Z,30.1889,-90.1683,1.0,4.6,160.0,5.7,'11111222,11111222,11111222' 
LUMCON,ioos:station:LUMCON:103:1,2009-01-06T04:00:00Z,30.1889,-90.1683,1.0,4.6,170.0,5.7,'11111222,11111222,11111222' 
LUMCON,ioos:station:LUMCON:103:1,2009-01-06T05:00:00Z,30.1889,-90.1683,1.0,5.1,170.0,6.7,'11111222,11111222,11111222' 
LUMCON,ioos:station:LUMCON:103:1,2009-01-06T06:00:00Z,30.1889,-90.1683,1.0,4.6,180.0,6.7,'11111222,11111222,11111222' 
LUMCON,ioos:station:LUMCON:103:1,2009-01-06T07:00:00Z,30.1889,-90.1683,1.0,6.2,170.0,7.7,'11111222,11111222,11111222' 
LUMCON,ioos:station:LUMCON:103:1,2009-01-06T08:00:00Z,30.1889,-90.1683,1.0,4.6,170.0,7.2,'11111222,11111222,11111222' 
LUMCON,ioos:station:LUMCON:103:1,2009-01-06T09:00:00Z,30.1889,-90.1683,1.0,6.2,180.0,9.3,'11111222,11111222,11111222' 
LUMCON,ioos:station:LUMCON:103:1,2009-01-06T16:00:00Z,30.1889,-90.1683,1.0,8.2,170.0,9.8,'11111222,11111222,11111222' 
LUMCON,ioos:station:LUMCON:103:1,2009-01-06T17:00:00Z,30.1889,-90.1683,1.0,8.8,180.0,9.8,'11111222,11111222,11111222' 
LUMCON,ioos:station:LUMCON:103:1,2009-01-06T18:00:00Z,30.1889,-90.1683,1.0,9.3,180.0,9.8,'11111222,11111222,11111222' 
LUMCON,ioos:station:LUMCON:103:1,2009-01-06T19:00:00Z,30.1889,-90.1683,1.0,9.3,180.0,9.3,'11111222,11111222,11111222' 
LUMCON,ioos:station:LUMCON:103:1,2009-01-06T20:00:00Z,30.1889,-90.1683,1.0,8.2,180.0,9.8,'11111222,11111222,11111222' 
LUMCON,ioos:station:LUMCON:103:1,2009-01-06T22:00:00Z,30.1889,-90.1683,1.0,8.8,260.0,9.8,'11111222,11111222,11111222' 
LUMCON,ioos:station:LUMCON:103:1,2009-01-06T23:00:00Z,30.1889,-90.1683,1.0,7.2,300.0,9.8,'11111222,11111222,11111222' 
LUMCON,ioos:station:LUMCON:103:1,2009-01-07T00:00:00Z,30.1889,-90.1683,1.0,4.6,320.0,7.2,'11111222,11111222,11111222' 
LUMCON,ioos:station:LUMCON:103:1,2009-01-07T01:00:00Z,30.1889,-90.1683,1.0,3.6,310.0,6.7,'11111222,11111222,11111222' 
LUMCON,ioos:station:LUMCON:103:1,2009-01-07T02:00:00Z,30.1889,-90.1683,1.0,3.6,270.0,7.2,'11111222,11111222,11111222' 
LUMCON,ioos:station:LUMCON:103:1,2009-01-07T03:00:00Z,30.1889,-90.1683,1.0,4.1,260.0,8.8,'11111222,11111222,11111222' 
LUMCON,ioos:station:LUMCON:103:1,2009-01-07T04:00:00Z,30.1889,-90.1683,1.0,5.7,250.0,8.8,'11111222,11111222,11111222' 
LUMCON,ioos:station:LUMCON:103:1,2009-01-07T05:00:00Z,30.1889,-90.1683,1.0,6.2,270.0,9.8,'11111222,11111222,11111222' 
LUMCON,ioos:station:LUMCON:103:1,2009-01-07T06:00:00Z,30.1889,-90.1683,1.0,6.7,260.0,9.8,'11111222,11111222,11111222' 
LUMCON,ioos:station:LUMCON:103:1,2009-01-07T07:00:00Z,30.1889,-90.1683,1.0,6.2,250.0,9.8,'11111222,11111222,11111222' 
LUMCON,ioos:station:LUMCON:103:1,2009-01-07T08:00:00Z,30.1889,-90.1683,1.0,5.7,250.0,7.7,'11111222,11111222,11111222' 
LUMCON,ioos:station:LUMCON:103:1,2009-01-07T09:00:00Z,30.1889,-90.1683,1.0,8.2,260.0,9.8,'11111222,11111222,11111222' 
LUMCON,ioos:station:LUMCON:103:1,2009-01-07T10:00:00Z,30.1889,-90.1683,1.0,8.2,270.0,9.8,'11111222,11111222,11111222' 
LUMCON,ioos:station:LUMCON:103:1,2009-01-07T11:00:00Z,30.1889,-90.1683,1.0,8.2,280.0,9.8,'11111222,11111222,11111222' 
LUMCON,ioos:station:LUMCON:103:1,2009-01-07T12:00:00Z,30.1889,-90.1683,1.0,7.7,280.0,9.8,'11111222,11111222,11111222' 
LUMCON,ioos:station:LUMCON:103:1,2009-01-07T13:00:00Z,30.1889,-90.1683,1.0,7.2,290.0,9.3,'11111222,11111222,11111222' 
LUMCON,ioos:station:LUMCON:103:1,2009-01-07T14:00:00Z,30.1889,-90.1683,1.0,6.2,280.0,8.2,'11111222,11111222,11111222' 
LUMCON,ioos:station:LUMCON:103:1,2009-01-07T15:00:00Z,30.1889,-90.1683,1.0,6.2,290.0,8.8,'11111222,11111222,11111222' 
LUMCON,ioos:station:LUMCON:103:1,2009-01-07T16:00:00Z,30.1889,-90.1683,1.0,4.1,310.0,6.2,'11111222,11111222,11111222' 
LUMCON,ioos:station:LUMCON:103:1,2009-01-07T17:00:00Z,30.1889,-90.1683,1.0,2.6,320.0,5.1,'11111222,11111222,11111222' 
LUMCON,ioos:station:LUMCON:103:1,2009-01-07T18:00:00Z,30.1889,-90.1683,1.0,2.1,330.0,4.1,'11111222,11111222,11111222' 
LUMCON,ioos:station:LUMCON:103:1,2009-01-07T19:00:00Z,30.1889,-90.1683,1.0,3.1,310.0,5.1,'11111222,11111222,11111222' 
LUMCON,ioos:station:LUMCON:103:1,2009-01-07T20:00:00Z,30.1889,-90.1683,1.0,3.1,260.0,6.7,'11111222,11111222,11111222' 
LUMCON,ioos:station:LUMCON:103:1,2009-01-07T21:00:00Z,30.1889,-90.1683,1.0,3.6,230.0,6.2,'11111222,11111222,11111222' 
LUMCON,ioos:station:LUMCON:103:1,2009-01-07T22:00:00Z,30.1889,-90.1683,1.0,3.6,220.0,6.2,'11111222,11111222,11111222' 
LUMCON,ioos:station:LUMCON:103:1,2009-01-07T23:00:00Z,30.1889,-90.1683,1.0,4.6,220.0,7.2,'11111222,11111222,11111222' 
LUMCON,ioos:station:LUMCON:103:1,2009-01-08T00:00:00Z,30.1889,-90.1683,1.0,4.1,220.0,6.2,'11111222,11111222,11111222' 
LUMCON,ioos:station:LUMCON:103:1,2009-01-08T01:00:00Z,30.1889,-90.1683,1.0,4.6,220.0,7.2,'11111222,11111222,11111222' 
LUMCON,ioos:station:LUMCON:103:1,2009-01-08T02:00:00Z,30.1889,-90.1683,1.0,5.1,220.0,8.2,'11111222,11111222,11111222' 
LUMCON,ioos:station:LUMCON:103:1,2009-01-08T03:00:00Z,30.1889,-90.1683,1.0,4.1,220.0,6.2,'11111222,11111222,11111222' 
LUMCON,ioos:station:LUMCON:103:1,2009-01-08T04:00:00Z,30.1889,-90.1683,1.0,5.1,220.0,7.2,'11111222,11111222,11111222' 
LUMCON,ioos:station:LUMCON:103:1,2009-01-08T05:00:00Z,30.1889,-90.1683,1.0,4.1,220.0,6.2,'11111222,11111222,11111222' 
LUMCON,ioos:station:LUMCON:103:1,2009-01-08T06:00:00Z,30.1889,-90.1683,1.0,4.6,220.0,6.7,'11111222,11111222,11111222' 
LUMCON,ioos:station:LUMCON:103:1,2009-01-08T07:00:00Z,30.1889,-90.1683,1.0,4.6,220.0,6.7,'11111222,11111222,11111222' 
LUMCON,ioos:station:LUMCON:103:1,2009-01-08T08:00:00Z,30.1889,-90.1683,1.0,4.1,220.0,6.2,'11111222,11111222,11111222' 
LUMCON,ioos:station:LUMCON:103:1,2009-01-08T09:00:00Z,30.1889,-90.1683,1.0,3.6,220.0,4.6,'11111222,11111222,11111222' 
LUMCON,ioos:station:LUMCON:103:1,2009-01-08T10:00:00Z,30.1889,-90.1683,1.0,2.6,230.0,4.1,'11111222,11111222,11111222' 
LUMCON,ioos:station:LUMCON:103:1,2009-01-08T11:00:00Z,30.1889,-90.1683,1.0,3.1,220.0,4.1,'11111222,11111222,11111222' 
LUMCON,ioos:station:LUMCON:103:1,2009-01-08T12:00:00Z,30.1889,-90.1683,1.0,3.1,220.0,4.6,'11111222,11111222,11111222' 
LUMCON,ioos:station:LUMCON:103:1,2009-01-08T13:00:00Z,30.1889,-90.1683,1.0,2.1,230.0,3.1,'11111222,11111222,11111222' 
LUMCON,ioos:station:LUMCON:103:1,2009-01-08T14:00:00Z,30.1889,-90.1683,1.0,2.6,230.0,4.6,'11111222,11111222,11111222' 
LUMCON,ioos:station:LUMCON:103:1,2009-01-08T15:00:00Z,30.1889,-90.1683,1.0,5.1,250.0,7.7,'11111222,11111222,11111222' 
LUMCON,ioos:station:LUMCON:103:1,2009-01-08T16:00:00Z,30.1889,-90.1683,1.0,6.2,260.0,9.3,'11111222,11111222,11111222' 
LUMCON,ioos:station:LUMCON:103:1,2009-01-08T17:00:00Z,30.1889,-90.1683,1.0,7.2,270.0,9.8,'11111222,11111222,11111222' 
LUMCON,ioos:station:LUMCON:103:1,2009-01-08T18:00:00Z,30.1889,-90.1683,1.0,5.7,260.0,8.2,'11111222,11111222,11111222' 
LUMCON,ioos:station:LUMCON:103:1,2009-01-08T19:00:00Z,30.1889,-90.1683,1.0,5.7,270.0,8.2,'11111222,11111222,11111222' 
LUMCON,ioos:station:LUMCON:103:1,2009-01-08T20:00:00Z,30.1889,-90.1683,1.0,6.2,270.0,9.8,'11111222,11111222,11111222' 
LUMCON,ioos:station:LUMCON:103:1,2009-01-08T21:00:00Z,30.1889,-90.1683,1.0,5.7,290.0,9.3,'11111222,11111222,11111222' 
LUMCON,ioos:station:LUMCON:103:1,2009-01-08T23:00:00Z,30.1889,-90.1683,1.0,3.1,290.0,5.7,'11111222,11111222,11111222' 
LUMCON,ioos:station:LUMCON:103:1,2009-01-09T00:00:00Z,30.1889,-90.1683,1.0,2.6,280.0,3.6,'11111222,11111222,11111222' 
LUMCON,ioos:station:LUMCON:103:1,2009-01-09T01:00:00Z,30.1889,-90.1683,1.0,2.1,260.0,2.6,'11111222,11111222,11111222' 
LUMCON,ioos:station:LUMCON:103:1,2009-01-09T03:00:00Z,30.1889,-90.1683,1.0,2.6,310.0,4.1,'11111222,11111222,11111222' 
LUMCON,ioos:station:LUMCON:103:1,2009-01-09T04:00:00Z,30.1889,-90.1683,1.0,2.6,320.0,3.6,'11111222,11111222,11111222' 
LUMCON,ioos:station:LUMCON:103:1,2009-01-09T05:00:00Z,30.1889,-90.1683,1.0,2.1,140.0,2.1,'11111222,11111222,11111222' 
LUMCON,ioos:station:LUMCON:103:1,2009-01-09T06:00:00Z,30.1889,-90.1683,1.0,2.1,160.0,3.1,'11111222,11111222,11111222' 
LUMCON,ioos:station:LUMCON:103:1,2009-01-09T07:00:00Z,30.1889,-90.1683,1.0,2.1,140.0,2.6,'11111222,11111222,11111222' 
LUMCON,ioos:station:LUMCON:103:1,2009-01-09T08:00:00Z,30.1889,-90.1683,1.0,1.5,150.0,3.6,'11111222,11111222,11111222' 
LUMCON,ioos:station:LUMCON:103:1,2009-01-09T09:00:00Z,30.1889,-90.1683,1.0,2.6,80.0,5.1,'11111222,11111222,11111222' 
LUMCON,ioos:station:LUMCON:103:1,2009-01-09T11:00:00Z,30.1889,-90.1683,1.0,3.6,90.0,5.1,'11111222,11111222,11111222' 
LUMCON,ioos:station:LUMCON:103:1,2009-01-09T12:00:00Z,30.1889,-90.1683,1.0,4.1,90.0,6.2,'11111222,11111222,11111222' 
LUMCON,ioos:station:LUMCON:103:1,2009-01-09T20:00:00Z,30.1889,-90.1683,1.0,4.6,110.0,6.7,'11111222,11111222,11111222' 
LUMCON,ioos:station:LUMCON:103:1,2009-01-09T21:00:00Z,30.1889,-90.1683,1.0,5.1,110.0,6.2,'11111222,11111222,11111222' 
LUMCON,ioos:station:LUMCON:103:1,2009-01-10T17:00:00Z,30.1889,-90.1683,1.0,5.7,190.0,9.3,'11111222,11111222,11111222' 
LUMCON,ioos:station:LUMCON:103:1,2009-01-10T18:00:00Z,30.1889,-90.1683,1.0,6.2,200.0,9.8,'11111222,11111222,11111222' 
LUMCON,ioos:station:LUMCON:103:1,2009-01-10T19:00:00Z,30.1889,-90.1683,1.0,6.7,210.0,9.8,'11111222,11111222,11111222' 
LUMCON,ioos:station:LUMCON:103:1,2009-01-10T20:00:00Z,30.1889,-90.1683,1.0,7.7,200.0,9.8,'11111222,11111222,11111222' 
LUMCON,ioos:station:LUMCON:103:1,2009-01-10T21:00:00Z,30.1889,-90.1683,1.0,7.7,210.0,9.8,'11111222,11111222,11111222' 
LUMCON,ioos:station:LUMCON:103:1,2009-01-10T22:00:00Z,30.1889,-90.1683,1.0,6.7,210.0,8.8,'11111222,11111222,11111222' 
LUMCON,ioos:station:LUMCON:103:1,2009-01-10T23:00:00Z,30.1889,-90.1683,1.0,6.7,210.0,7.7,'11111222,11111222,11111222' 
LUMCON,ioos:station:LUMCON:103:1,2009-01-11T00:00:00Z,30.1889,-90.1683,1.0,6.2,210.0,7.7,'11111222,11111222,11111222' 
LUMCON,ioos:station:LUMCON:103:1,2009-01-11T01:00:00Z,30.1889,-90.1683,1.0,5.1,220.0,8.2,'11111222,11111222,11111222' 
LUMCON,ioos:station:LUMCON:103:1,2009-01-11T02:00:00Z,30.1889,-90.1683,1.0,4.6,260.0,7.7,'11111222,11111222,11111222' 
LUMCON,ioos:station:LUMCON:103:1,2009-01-11T03:00:00Z,30.1889,-90.1683,1.0,6.2,300.0,9.8,'11111222,11111222,11111222' 
LUMCON,ioos:station:LUMCON:103:1,2009-01-11T04:00:00Z,30.1889,-90.1683,1.0,5.7,310.0,9.8,'11111222,11111222,11111222' 
LUMCON,ioos:station:LUMCON:103:1,2009-01-11T05:00:00Z,30.1889,-90.1683,1.0,6.7,330.0,8.8,'11111222,11111222,11111222' 
LUMCON,ioos:station:LUMCON:103:1,2009-01-11T06:00:00Z,30.1889,-90.1683,1.0,6.7,340.0,9.8,'11111222,11111222,11111222' 
LUMCON,ioos:station:LUMCON:103:1,2009-01-11T07:00:00Z,30.1889,-90.1683,1.0,6.7,330.0,9.8,'11111222,11111222,11111222' 
LUMCON,ioos:station:LUMCON:103:1,2009-01-11T08:00:00Z,30.1889,-90.1683,1.0,7.7,340.0,9.3,'11111222,11111222,11111222' 
LUMCON,ioos:station:LUMCON:103:1,2009-01-11T12:00:00Z,30.1889,-90.1683,1.0,5.1,350.0,7.7,'11111222,11111222,11111222' 
LUMCON,ioos:station:LUMCON:103:1,2009-01-12T00:00:00Z,30.1889,-90.1683,1.0,5.7,350.0,7.7,'11111222,11111222,11111222' 
LUMCON,ioos:station:LUMCON:103:1,2009-01-12T13:00:00Z,30.1889,-90.1683,1.0,4.6,20.0,7.2,'11111222,11111222,11111222' 
LUMCON,ioos:station:LUMCON:103:1,2009-01-12T14:00:00Z,30.1889,-90.1683,1.0,5.7,20.0,7.2,'11111222,11111222,11111222' 
LUMCON,ioos:station:LUMCON:103:1,2009-01-12T16:00:00Z,30.1889,-90.1683,1.0,5.7,50.0,8.2,'11111222,11111222,11111222' 
LUMCON,ioos:station:LUMCON:103:1,2009-01-13T00:00:00Z,30.1889,-90.1683,1.0,2.6,90.0,5.1,'11111222,11111222,11111222' 
LUMCON,ioos:station:LUMCON:103:1,2009-01-13T03:00:00Z,30.1889,-90.1683,1.0,4.1,40.0,5.7,'11111222,11111222,11111222' 
LUMCON,ioos:station:LUMCON:103:1,2009-01-13T05:00:00Z,30.1889,-90.1683,1.0,3.1,10.0,4.1,'11111222,11111222,11111222' 
LUMCON,ioos:station:LUMCON:103:1,2009-01-13T08:00:00Z,30.1889,-90.1683,1.0,3.6,0.0,4.6,'11111222,11111222,11111222' 
LUMCON,ioos:station:LUMCON:103:1,2009-01-13T09:00:00Z,30.1889,-90.1683,1.0,3.1,340.0,4.1,'11111222,11111222,11111222' 
LUMCON,ioos:station:LUMCON:103:1,2009-01-13T11:00:00Z,30.1889,-90.1683,1.0,2.6,340.0,3.1,'11111222,11111222,11111222' 
LUMCON,ioos:station:LUMCON:103:1,2009-01-13T14:00:00Z,30.1889,-90.1683,1.0,2.1,260.0,2.6,'11111222,11111222,11111222' 
LUMCON,ioos:station:LUMCON:103:1,2009-01-13T19:00:00Z,30.1889,-90.1683,1.0,5.7,320.0,8.8,'11111222,11111222,11111222' 
LUMCON,ioos:station:LUMCON:103:1,2009-01-13T21:00:00Z,30.1889,-90.1683,1.0,5.7,310.0,8.8,'11111222,11111222,11111222' 
LUMCON,ioos:station:LUMCON:103:1,2009-01-13T23:00:00Z,30.1889,-90.1683,1.0,6.7,330.0,8.8,'11111222,11111222,11111222' 
LUMCON,ioos:station:LUMCON:103:1,2009-01-14T00:00:00Z,30.1889,-90.1683,1.0,5.7,330.0,8.8,'11111222,11111222,11111222' 
LUMCON,ioos:station:LUMCON:103:1,2009-01-15T09:00:00Z,30.1889,-90.1683,1.0,2.1,300.0,2.6,'11111222,11111222,11111222' 
LUMCON,ioos:station:LUMCON:103:1,2009-01-15T10:00:00Z,30.1889,-90.1683,1.0,2.1,300.0,2.6,'11111222,11111222,11111222' 
LUMCON,ioos:station:LUMCON:103:1,2009-01-17T22:00:00Z,30.1889,-90.1683,1.0,3.1,110.0,4.6,'11111222,11111222,11111222' 
LUMCON,ioos:station:LUMCON:103:1,2009-01-17T23:00:00Z,30.1889,-90.1683,1.0,3.1,120.0,5.1,'11111222,11111222,11111222' 
LUMCON,ioos:station:LUMCON:103:1,2009-01-18T00:00:00Z,30.1889,-90.1683,1.0,3.6,120.0,6.7,'11111222,11111222,11111222' 
LUMCON,ioos:station:LUMCON:103:1,2009-01-18T02:00:00Z,30.1889,-90.1683,1.0,3.6,110.0,5.7,'11111222,11111222,11111222' 
LUMCON,ioos:station:LUMCON:103:1,2009-01-18T03:00:00Z,30.1889,-90.1683,1.0,3.1,100.0,6.2,'11111222,11111222,11111222' 
LUMCON,ioos:station:LUMCON:103:1,2009-01-18T05:00:00Z,30.1889,-90.1683,1.0,3.1,130.0,3.6,'11111222,11111222,11111222' 
LUMCON,ioos:station:LUMCON:103:1,2009-01-18T06:00:00Z,30.1889,-90.1683,1.0,2.1,150.0,3.1,'11111222,11111222,11111222' 
LUMCON,ioos:station:LUMCON:103:1,2009-01-18T07:00:00Z,30.1889,-90.1683,1.0,3.1,170.0,3.6,'11111222,11111222,11111222' 
LUMCON,ioos:station:LUMCON:103:1,2009-01-18T08:00:00Z,30.1889,-90.1683,1.0,3.1,190.0,3.6,'11111222,11111222,11111222' 
LUMCON,ioos:station:LUMCON:103:1,2009-01-18T09:00:00Z,30.1889,-90.1683,1.0,3.1,190.0,4.1,'11111222,11111222,11111222' 
LUMCON,ioos:station:LUMCON:103:1,2009-01-18T19:00:00Z,30.1889,-90.1683,1.0,6.2,290.0,9.3,'11111222,11111222,11111222' 
LUMCON,ioos:station:LUMCON:103:1,2009-01-18T20:00:00Z,30.1889,-90.1683,1.0,7.2,290.0,9.8,'11111222,11111222,11111222' 
LUMCON,ioos:station:LUMCON:103:1,2009-01-18T22:00:00Z,30.1889,-90.1683,1.0,6.7,290.0,9.8,'11111222,11111222,11111222' 
LUMCON,ioos:station:LUMCON:103:1,2009-01-18T23:00:00Z,30.1889,-90.1683,1.0,5.1,270.0,7.2,'11111222,11111222,11111222' 
LUMCON,ioos:station:LUMCON:103:1,2009-01-19T02:00:00Z,30.1889,-90.1683,1.0,4.6,260.0,6.2,'11111222,11111222,11111222' 
LUMCON,ioos:station:LUMCON:103:1,2009-01-19T03:00:00Z,30.1889,-90.1683,1.0,4.6,280.0,6.2,'11111222,11111222,11111222' 
LUMCON,ioos:station:LUMCON:103:1,2009-01-19T04:00:00Z,30.1889,-90.1683,1.0,4.1,280.0,5.7,'11111222,11111222,11111222' 
LUMCON,ioos:station:LUMCON:103:1,2009-01-19T05:00:00Z,30.1889,-90.1683,1.0,4.1,270.0,4.6,'11111222,11111222,11111222' 
LUMCON,ioos:station:LUMCON:103:1,2009-01-19T06:00:00Z,30.1889,-90.1683,1.0,3.6,290.0,4.6,'11111222,11111222,11111222' 
LUMCON,ioos:station:LUMCON:103:1,2009-01-19T13:00:00Z,30.1889,-90.1683,1.0,5.1,210.0,7.2,'11111222,11111222,11111222' 
LUMCON,ioos:station:LUMCON:103:1,2009-01-19T14:00:00Z,30.1889,-90.1683,1.0,5.7,210.0,8.2,'11111222,11111222,11111222' 
LUMCON,ioos:station:LUMCON:103:1,2009-01-19T15:00:00Z,30.1889,-90.1683,1.0,6.2,210.0,8.8,'11111222,11111222,11111222' 
LUMCON,ioos:station:LUMCON:103:1,2009-01-20T00:00:00Z,30.1889,-90.1683,1.0,5.7,320.0,9.8,'11111222,11111222,11111222' 
LUMCON,ioos:station:LUMCON:103:1,2009-01-20T01:00:00Z,30.1889,-90.1683,1.0,6.2,340.0,9.8,'11111222,11111222,11111222' 
LUMCON,ioos:station:LUMCON:103:1,2009-01-20T02:00:00Z,30.1889,-90.1683,1.0,5.1,330.0,7.2,'11111222,11111222,11111222' 
LUMCON,ioos:station:LUMCON:103:1,2009-01-22T22:00:00Z,30.1889,-90.1683,1.0,4.6,120.0,6.2,'11111222,11111222,11111222' 
LUMCON,ioos:station:LUMCON:103:1,2009-01-22T23:00:00Z,30.1889,-90.1683,1.0,4.6,150.0,6.7,'11111222,11111222,11111222' 
LUMCON,ioos:station:LUMCON:103:1,2009-01-23T02:00:00Z,30.1889,-90.1683,1.0,3.6,160.0,7.2,'11111222,11111222,11111222' 
LUMCON,ioos:station:LUMCON:103:1,2009-01-23T11:00:00Z,30.1889,-90.1683,1.0,3.6,170.0,5.1,'11111222,11111222,11111222' 
LUMCON,ioos:station:LUMCON:103:1,2009-01-23T13:00:00Z,30.1889,-90.1683,1.0,1.5,200.0,3.1,'11111222,11111222,11111222' 
LUMCON,ioos:station:LUMCON:103:1,2009-01-23T14:00:00Z,30.1889,-90.1683,1.0,2.6,180.0,3.6,'11111222,11111222,11111222' 
LUMCON,ioos:station:LUMCON:103:1,2009-01-23T15:00:00Z,30.1889,-90.1683,1.0,3.1,190.0,4.1,'11111222,11111222,11111222' 
LUMCON,ioos:station:LUMCON:103:1,2009-01-23T18:00:00Z,30.1889,-90.1683,1.0,4.1,170.0,5.7,'11111222,11111222,11111222' 
LUMCON,ioos:station:LUMCON:103:1,2009-01-23T20:00:00Z,30.1889,-90.1683,1.0,6.2,200.0,7.7,'11111222,11111222,11111222' 
LUMCON,ioos:station:LUMCON:103:1,2009-01-23T21:00:00Z,30.1889,-90.1683,1.0,5.7,200.0,7.2,'11111222,11111222,11111222' 
LUMCON,ioos:station:LUMCON:103:1,2009-01-23T22:00:00Z,30.1889,-90.1683,1.0,5.1,220.0,7.2,'11111222,11111222,11111222' 
LUMCON,ioos:station:LUMCON:103:1,2009-01-24T00:00:00Z,30.1889,-90.1683,1.0,2.6,200.0,4.1,'11111222,11111222,11111222' 
LUMCON,ioos:station:LUMCON:103:1,2009-01-24T01:00:00Z,30.1889,-90.1683,1.0,2.6,190.0,4.6,'11111222,11111222,11111222' 
LUMCON,ioos:station:LUMCON:103:1,2009-01-24T02:00:00Z,30.1889,-90.1683,1.0,3.6,180.0,5.7,'11111222,11111222,11111222' 
LUMCON,ioos:station:LUMCON:103:1,2009-01-24T03:00:00Z,30.1889,-90.1683,1.0,3.1,180.0,4.6,'11111222,11111222,11111222' 
LUMCON,ioos:station:LUMCON:103:1,2009-01-24T13:00:00Z,30.1889,-90.1683,1.0,2.6,180.0,3.6,'11111222,11111222,11111222' 
LUMCON,ioos:station:LUMCON:103:1,2009-01-24T15:00:00Z,30.1889,-90.1683,1.0,1.5,210.0,2.6,'11111222,11111222,11111222' 
LUMCON,ioos:station:LUMCON:103:1,2009-01-24T16:00:00Z,30.1889,-90.1683,1.0,2.6,190.0,4.1,'11111222,11111222,11111222' 
LUMCON,ioos:station:LUMCON:103:1,2009-01-24T18:00:00Z,30.1889,-90.1683,1.0,4.6,220.0,7.2,'11111222,11111222,11111222' 
LUMCON,ioos:station:LUMCON:103:1,2009-01-25T12:00:00Z,30.1889,-90.1683,1.0,3.1,30.0,4.6,'11111222,11111222,11111222' 
LUMCON,ioos:station:LUMCON:103:1,2009-01-25T15:00:00Z,30.1889,-90.1683,1.0,2.1,30.0,3.6,'11111222,11111222,11111222' 
LUMCON,ioos:station:LUMCON:103:1,2009-01-25T19:00:00Z,30.1889,-90.1683,1.0,1.5,70.0,2.6,'11111222,11111222,11111222' 
LUMCON,ioos:station:LUMCON:103:1,2009-01-26T00:00:00Z,30.1889,-90.1683,1.0,1.5,80.0,3.1,'11111222,11111222,11111222' 
LUMCON,ioos:station:LUMCON:103:1,2009-01-26T01:00:00Z,30.1889,-90.1683,1.0,2.1,100.0,3.6,'11111222,11111222,11111222' 
LUMCON,ioos:station:LUMCON:103:1,2009-01-27T04:00:00Z,30.1889,-90.1683,1.0,4.6,100.0,7.2,'11111222,11111222,11111222' 
LUMCON,ioos:station:LUMCON:103:1,2009-01-27T05:00:00Z,30.1889,-90.1683,1.0,5.1,100.0,8.2,'11111222,11111222,11111222' 
LUMCON,ioos:station:LUMCON:103:1,2009-01-27T06:00:00Z,30.1889,-90.1683,1.0,5.1,110.0,7.7,'11111222,11111222,11111222' 
LUMCON,ioos:station:LUMCON:103:1,2009-01-27T08:00:00Z,30.1889,-90.1683,1.0,3.6,100.0,4.6,'11111222,11111222,11111222' 
LUMCON,ioos:station:LUMCON:103:1,2009-01-27T09:00:00Z,30.1889,-90.1683,1.0,4.6,110.0,5.7,'11111222,11111222,11111222' 
LUMCON,ioos:station:LUMCON:103:1,2009-01-27T10:00:00Z,30.1889,-90.1683,1.0,5.1,100.0,6.7,'11111222,11111222,11111222' 
LUMCON,ioos:station:LUMCON:103:1,2009-01-27T11:00:00Z,30.1889,-90.1683,1.0,3.6,100.0,5.1,'11111222,11111222,11111222' 
LUMCON,ioos:station:LUMCON:103:1,2009-01-27T12:00:00Z,30.1889,-90.1683,1.0,2.6,80.0,3.6,'11111222,11111222,11111222' 
LUMCON,ioos:station:LUMCON:103:1,2009-01-27T13:00:00Z,30.1889,-90.1683,1.0,2.6,80.0,3.6,'11111222,11111222,11111222' 
LUMCON,ioos:station:LUMCON:103:1,2009-01-27T14:00:00Z,30.1889,-90.1683,1.0,3.6,100.0,5.7,'11111222,11111222,11111222' 
LUMCON,ioos:station:LUMCON:103:1,2009-01-27T16:00:00Z,30.1889,-90.1683,1.0,5.1,110.0,6.7,'11111222,11111222,11111222' 
LUMCON,ioos:station:LUMCON:103:1,2009-01-27T19:00:00Z,30.1889,-90.1683,1.0,5.1,110.0,6.2,'11111222,11111222,11111222' 
LUMCON,ioos:station:LUMCON:103:1,2009-01-27T20:00:00Z,30.1889,-90.1683,1.0,4.1,120.0,6.2,'11111222,11111222,11111222' 
LUMCON,ioos:station:LUMCON:103:1,2009-01-27T21:00:00Z,30.1889,-90.1683,1.0,4.1,130.0,5.1,'11111222,11111222,11111222' 
LUMCON,ioos:station:LUMCON:103:1,2009-01-27T22:00:00Z,30.1889,-90.1683,1.0,4.1,140.0,6.7,'11111222,11111222,11111222' 
LUMCON,ioos:station:LUMCON:103:1,2009-01-27T23:00:00Z,30.1889,-90.1683,1.0,4.1,150.0,6.2,'11111222,11111222,11111222' 
LUMCON,ioos:station:LUMCON:103:1,2009-01-28T00:00:00Z,30.1889,-90.1683,1.0,4.6,140.0,7.7,'11111222,11111222,11111222' 
LUMCON,ioos:station:LUMCON:103:1,2009-01-28T01:00:00Z,30.1889,-90.1683,1.0,3.6,130.0,5.7,'11111222,11111222,11111222' 
LUMCON,ioos:station:LUMCON:103:1,2009-01-28T04:00:00Z,30.1889,-90.1683,1.0,2.6,160.0,3.6,'11111222,11111222,11111222' 
LUMCON,ioos:station:LUMCON:103:1,2009-01-28T05:00:00Z,30.1889,-90.1683,1.0,2.6,150.0,3.6,'11111222,11111222,11111222' 
LUMCON,ioos:station:LUMCON:103:1,2009-01-28T06:00:00Z,30.1889,-90.1683,1.0,5.1,150.0,7.2,'11111222,11111222,11111222' 
LUMCON,ioos:station:LUMCON:103:1,2009-01-28T07:00:00Z,30.1889,-90.1683,1.0,3.1,170.0,4.6,'11111222,11111222,11111222' 
LUMCON,ioos:station:LUMCON:103:1,2009-01-28T08:00:00Z,30.1889,-90.1683,1.0,2.6,180.0,3.1,'11111222,11111222,11111222' 
LUMCON,ioos:station:LUMCON:103:1,2009-01-28T09:00:00Z,30.1889,-90.1683,1.0,2.1,230.0,3.1,'11111222,11111222,11111222' 
LUMCON,ioos:station:LUMCON:103:1,2009-01-28T10:00:00Z,30.1889,-90.1683,1.0,3.1,200.0,4.6,'11111222,11111222,11111222' 
LUMCON,ioos:station:LUMCON:103:1,2009-01-28T11:00:00Z,30.1889,-90.1683,1.0,4.1,210.0,5.1,'11111222,11111222,11111222' 
LUMCON,ioos:station:LUMCON:103:1,2009-01-28T12:00:00Z,30.1889,-90.1683,1.0,6.7,280.0,99.0,'11111222,11111222,11144222' 
LUMCON,ioos:station:LUMCON:103:1,2009-01-28T13:00:00Z,30.1889,-90.1683,1.0,5.7,280.0,9.8,'11111222,11111222,11111222' 
LUMCON,ioos:station:LUMCON:103:1,2009-01-28T14:00:00Z,30.1889,-90.1683,1.0,6.7,340.0,9.8,'11111222,11111222,11111222' 
LUMCON,ioos:station:LUMCON:103:1,2009-01-28T15:00:00Z,30.1889,-90.1683,1.0,6.2,350.0,9.8,'11111222,11111222,11111222' 
LUMCON,ioos:station:LUMCON:103:1,2009-01-29T19:00:00Z,30.1889,-90.1683,1.0,4.6,350.0,7.7,'11111222,11111222,11111222' 
LUMCON,ioos:station:LUMCON:103:1,2009-01-29T20:00:00Z,30.1889,-90.1683,1.0,4.6,330.0,6.2,'11111222,11111222,11111222' 
LUMCON,ioos:station:LUMCON:103:1,2009-01-29T21:00:00Z,30.1889,-90.1683,1.0,4.6,360.0,8.2,'11111222,11144222,11111222' 
LUMCON,ioos:station:LUMCON:103:1,2009-01-29T22:00:00Z,30.1889,-90.1683,1.0,5.1,350.0,7.7,'11111222,11111222,11111222' 
LUMCON,ioos:station:LUMCON:103:1,2009-01-30T01:00:00Z,30.1889,-90.1683,1.0,3.1,10.0,4.1,'11111222,11111222,11111222' 
LUMCON,ioos:station:LUMCON:103:1,2009-01-30T02:00:00Z,30.1889,-90.1683,1.0,3.6,10.0,5.1,'11111222,11111222,11111222' 